Location: Buttermere
(51.3333°N, 1.5167°W)
Time: 11:16:24
(UTC+00:00)

Cosmos 1048 Rocket - Pass Details

Date: 18 September 2020
Orbit: 742 x 792 km, 74.0° (Epoch: 24 October)

Event Time Altitude Azimuth Distance (km) Brightness Sun altitude
Rises 19:22:16 0° 337° (NNW) 3,253 7.9 -11.5°
Reaches altitude 10° 19:24:42 10° 341° (NNW) 2,330 7.0 -11.9°
Maximum altitude 19:29:55 57° 60° (ENE) 922 4.2 -12.7°
Enters shadow 19:34:11 16° 136° (SE) 1,980 5.6 -13.3°
